Home   Weather   Loures   Past weeks

Flag for Portugal Past Weather in Loures, Portugal — Yesterday and Last 2 Weeks

Now
57 °F

Light rain. Broken clouds.


Feels Like: 55 °F
Forecast: 60 / 67 °F
Wind: 10 mph from Southeast

Location: Lisbon Portela Airport

Current Time: Dec 4, 2016 at 12:30:42 pm

Latest Report: Dec 4, 2016 at 12:00 pm


Visibility: N/A

Pressure: 29.62 "Hg

Humidity: 100%

Dew Point: 57 °F

Location of LouresLocation

Past Weather in Loures — Graph

°F

Loures Temperature Yesterday

Maximum temperature yesterday: 59 °F (at 10:00 am)
Minimum temperature yesterday: 55 °F (at 12:00 am)
Average temperature yesterday: 57 °F

High & Low Weather Summary for the Past Weeks

 TemperatureHumidityPressure
High63 °F (Nov 19, 2:00 pm)100% (Nov 20, 1:00 am)30.18 "Hg (Nov 20, 1:00 am)
Low45 °F (Nov 22, 7:30 am)51% (Nov 23, 1:30 pm)29.53 "Hg (Nov 25, 5:30 am)
Average55 °F87%29.81 "Hg
* Reported Nov 19 11:00 am — Dec 4 11:30 am, Loures, Weather by CustomWeather, © 2016

Note: Actual official high and low records may vary slightly from our data, if they occured in-between our weather recording intervals... More about our weather records

Advertising

Loures Weather History for the Previous 24 Hours

Scroll right to see more
 ConditionsComfort  
Time TempWeatherWind HumidityBarometerVisibility
11:30 am
Sun, Dec 4
57 °FLight rain. Scattered clouds.9 mph100%29.65 "HgN/A
11:00 am55 °FRain. Passing clouds.12 mph100%29.65 "HgN/A
10:30 am57 °FRain. Scattered clouds.13 mph94%29.65 "Hg4 mi
10:00 am57 °FHeavy rain. Fog.14 mph94%29.65 "Hg1 mi
9:30 am57 °FRain. Fog.12 mph94%29.62 "Hg1 mi
9:00 am57 °FRain. Scattered clouds.13 mph100%29.62 "Hg2 mi
8:30 am57 °FSprinkles. Partly sunny.13 mph100%29.62 "HgN/A
8:00 am57 °FScattered clouds.10 mph100%29.59 "HgN/A
7:30 am57 °FSprinkles. Passing clouds.9 mph100%29.59 "Hg4 mi
7:00 am57 °FPassing clouds.12 mph100%29.59 "HgN/A
6:30 am57 °FLight rain. Passing clouds.12 mph100%29.59 "HgN/A
6:00 am57 °FPassing clouds.12 mph100%29.59 "HgN/A
5:30 am57 °FPassing clouds.10 mph100%29.56 "HgN/A
5:00 am57 °FPassing clouds.9 mph100%29.56 "HgN/A
4:30 am57 °FPassing clouds.9 mph100%29.56 "HgN/A
4:00 am57 °FPassing clouds.9 mph100%29.56 "HgN/A
3:30 am57 °FPassing clouds.10 mph100%29.59 "HgN/A
3:00 am57 °FPassing clouds.9 mph100%29.59 "HgN/A
2:30 am57 °FPassing clouds.7 mph100%29.56 "Hg4 mi
2:00 am57 °FPassing clouds.8 mph100%29.56 "HgN/A
1:30 am57 °FPassing clouds.8 mph100%29.59 "HgN/A
1:00 am57 °FScattered showers. Passing clouds.12 mph100%29.59 "HgN/A
12:30 am57 °FPassing clouds.9 mph100%29.59 "HgN/A
12:00 am57 °FPartly cloudy.6 mph100%29.59 "Hg5 mi
11:30 pm
Sat, Dec 3
57 °FPassing clouds.6 mph100%29.59 "Hg5 mi
11:00 pm57 °FPassing clouds.3 mph100%29.59 "HgN/A
10:30 pm57 °FPassing clouds.5 mph100%29.59 "HgN/A
10:00 pm57 °FPassing clouds.5 mph94%29.59 "HgN/A
9:30 pm55 °FPassing clouds.3 mph100%29.59 "HgN/A
9:00 pm55 °FPassing clouds.3 mph100%29.59 "HgN/A
8:30 pm57 °FPassing clouds.5 mph100%29.56 "HgN/A
8:00 pm57 °FPassing clouds.5 mph94%29.56 "HgN/A
7:30 pm55 °FPassing clouds.5 mph100%29.56 "HgN/A
7:00 pm57 °FPassing clouds.6 mph94%29.53 "HgN/A
6:30 pm57 °FPartly cloudy.5 mph94%29.56 "HgN/A
6:00 pm57 °FPassing clouds.5 mph94%29.53 "HgN/A
5:30 pm57 °FPassing clouds.6 mph94%29.53 "HgN/A
5:00 pm57 °FPartly sunny.6 mph100%29.53 "HgN/A
4:30 pm57 °FRain. Partly sunny.8 mph100%29.53 "Hg4 mi
4:00 pm57 °FRain. Scattered clouds.8 mph94%29.53 "Hg4 mi
3:30 pm57 °FLight rain. Scattered clouds.14 mph94%29.56 "Hg4 mi
3:00 pm59 °FLight rain. Passing clouds.16 mph88%29.53 "Hg6 mi
2:30 pm59 °FRain. Partly sunny.14 mph100%29.53 "Hg2 mi
2:00 pm59 °FRain. Broken clouds.15 mph100%29.53 "Hg3 mi
1:30 pm59 °FRain. Partly sunny.13 mph100%29.53 "Hg2 mi
1:00 pm59 °FLight rain. Partly sunny.15 mph100%29.56 "Hg5 mi
12:30 pm59 °FRain. Partly sunny.13 mph100%29.59 "Hg2 mi
12:00 pm59 °FLight rain. Partly sunny.14 mph100%29.59 "HgN/A
Weather by CustomWeather, © 2016

See weather overviewHow to use our weather pages